Starlink 30787

operational
NORAD ID: 58128 Int'l Des: 2023-162 Owner: SPXS Country: US Constellation: starlink
LEOCIRCULAR

Über Starlink 30787

Beschreibung wird geladen...

Live-Position

3D-Globus wird geladen...

Nächste Überflüge

Höhenverlauf

Altitude vs Time

uPlot chart will show altitude changes over time

Zweizeiliger Elementsatz

1 58128U 23162L 25305.52914644 -.00002379 00000-0 -16119-3 0 9992
2 58128 43.0021 109.2794 0001605 278.3195 81.7465 15.02513417113022
Epoch: 1. Nov. 2025 • Age: 13 hours

Aktueller Status

Höhe 563.3 km
Geschwindigkeit 7.58 km/s
Subsatellitenpunkt 42.95°N, 120.22°E
Startdatum 22. Okt. 2023
Alter 2 years
Typ internet

Technische Details

Klassifizierung Payload
Masse 730.00 kg
Trockenmasse 700.00 kg
Gesamtmasse 730.00 kg
Länge 0.30 m
Durchmesser 4.10 m
Spannweite 29.00 m
Form Box + pan
Hersteller SPXS
Bus-Typ Starlink V2M
Phasenstatus In Orbit
Besitzer/Staat SPXS/US

Große Konstellationen

Loading constellations...